Bewolking Meer informatie Parkstad Weather Satellite


Neerslagradar Meer informatie Parkstad Rain Snow Radar


Onweersbuien Meer informatie Parkstad Lighntning


24/7 Weercamera Meer informatie Parkstad Weathercam


Natuurbrandrisico
CBI







Select another period ( hide this area )

Eenheden Periode Custom range Directly to
Metrisch Engels Beide
Dagelijkse Wekelijkse Maandelijkse Jaarlijkse
use both date-selectors for a custom range
previous Dag
With this date
Dagelijkse Samenvatting Vrijdag 19 augustus 2022
Tijd Temp. ( °C ) Dew pt. ( °C ) Wind ( km/h ) van Windvlaag ( km/h ) Luchtdruk ( hPa ) Humid.( % ) Rainrate ( cm ) Zonneschijn ( W/m2 )
Hoog19,8 16,4 16,0 WZW ( 538/720 ) 19,0 1014,6 96 - 445
Gemiddeld17,3 15,7 5,7 WZW #72/127 7,1 1013,4 90 - 165 #48/127
Laag16,1 15,0 -   0,0 1012,9 77 -  
Dagelijkse Tabular details for Vrijdag 19 augustus 2022
Tijd Temp. ( °C ) Dew pt. ( °C ) Wind ( km/h ) van Windvlaag ( km/h ) Luchtdruk ( hPa ) Humid.( % ) Rainrate ( cm ) Zonneschijn ( W/m2 )
00:04 18,2 15,5   Windstil 2,0 1012,9 84 - -
00:09 18,2 15,5   Windstil 2,0 1012,9 84 - -
00:14 18,2 15,5 3,0 NW 3,0 1012,9 84 - -
00:19 18,1 15,5 1,0 NW 3,0 1012,9 85 - -
00:24 18,1 15,5 1,0 NW 2,0 1012,9 85 - -
00:29 18,1 15,5 3,0 NW 3,0 1012,9 85 - -
00:34 17,9 15,5 3,0 NW 3,0 1012,9 86 - -
00:39 17,9 15,5 3,0 WNW 3,0 1012,9 86 - -
00:44 17,9 15,5 1,0 WNW 3,0 1012,9 86 - -
00:49 17,9 15,5   Windstil   1012,9 86 - -
00:54 17,9 15,5 3,0 WNW 3,0 1012,9 86 - -
00:59 17,9 15,5 3,0 WNW 3,0 1012,9 86 - -
01:04 17,9 15,7 1,0 WNW 3,0 1012,9 87 - -
01:09 17,8 15,6 3,0 WNW 3,0 1012,9 87 - -
01:14 17,8 15,6 3,0 WNW 3,0 1012,9 87 - -
01:19 17,8 15,6 3,0 WNW 3,0 1012,9 87 - -
01:24 17,8 15,6 1,0 Westen 3,0 1012,9 87 - -
01:29 17,7 15,5 1,0 Westen 2,0 1013,2 87 - -
01:34 17,7 15,6 3,0 Westen 3,0 1013,2 88 - -
01:39 17,6 15,6 1,0 Westen 2,0 1013,2 88 - -
01:44 17,6 15,6   Windstil 2,0 1013,2 88 - -
01:49 17,6 15,6   Windstil 2,0 1012,9 88 - -
01:54 17,5 15,6 1,0 Westen 3,0 1012,9 89 - -
01:59 17,4 15,6 1,0 Westen 3,0 1012,9 89 - -
02:04 17,4 15,6 3,0 Westen 3,0 1012,9 89 - -
02:09 17,3 15,5   Windstil 3,0 1012,9 89 - -
02:14 17,3 15,6   Windstil   1013,2 90 - -
02:19 17,3 15,6   Windstil   1013,2 90 - -
02:24 17,3 15,6   Windstil   1013,2 90 - -
02:29 17,2 15,5 2,0 Westen 2,0 1013,2 90 - -
02:34 17,2 15,7 3,0 Westen 3,0 1012,9 91 - -
02:39 17,2 15,7 3,0 WZW 3,0 1012,9 91 - -
02:44 17,2 15,7 3,0 WZW 5,0 1012,9 91 - -
02:49 17,2 15,7 1,0 WZW 2,0 1012,9 91 - -
02:54 17,1 15,6 5,0 WZW 5,0 1012,9 91 - -
02:59 17,0 15,5 1,0 WZW 3,0 1012,9 91 - -
03:04 17,0 15,5 3,0 WZW 3,0 1012,9 91 - -
03:09 16,9 15,4   Windstil 3,0 1012,9 91 - -
03:14 16,8 15,3   Windstil   1012,9 91 - -
03:19 16,7 15,2   Windstil   1012,9 91 - -
03:24 16,7 15,2   Windstil   1012,9 91 - -
03:29 16,6 15,3 2,0 WZW 2,0 1012,9 92 - -
03:34 16,6 15,3 3,0 WZW 3,0 1012,9 92 - -
03:39 16,4 15,1 3,0 WZW 3,0 1012,9 92 - -
03:44 16,4 15,1   Windstil 2,0 1012,9 92 - -
03:49 16,4 15,1 3,0 WZW 3,0 1012,9 92 - -
03:54 16,4 15,3 1,0 WZW 3,0 1012,9 93 - -
03:59 16,4 15,1 3,0 WZW 3,0 1012,9 92 - -
04:04 16,6 15,5   Windstil   1012,9 93 - -
04:09 16,4 15,3 3,0 WZW 3,0 1012,9 93 - -
04:14 16,4 15,1   Windstil   1013,2 92 - -
04:19 16,4 15,3 3,0 WZW 3,0 1013,2 93 - -
04:24 16,4 15,3   Windstil 2,0 1013,2 93 - -
04:29 16,3 15,2 3,0 WZW 3,0 1013,2 93 - -
04:34 16,3 15,2   Windstil   1012,9 93 - -
04:39 16,2 15,1   Windstil   1012,9 93 - -
04:44 16,1 15,0 1,0 WZW 2,0 1012,9 93 - -
04:49 16,1 15,0 3,0 WZW 3,0 1012,9 93 - -
04:54 16,1 15,0 5,0 WZW 5,0 1012,9 93 - -
04:59 16,1 15,1 5,0 Westen 5,0 1013,2 94 - -
05:04 16,1 15,1 5,0 WZW 5,0 1013,2 94 - -
05:09 16,1 15,1 6,0 WZW 6,0 1013,2 94 - -
05:14 16,2 15,4 6,0 WZW 8,0 1013,2 95 - -
05:19 16,3 15,5 8,0 Westen 8,0 1013,2 95 - -
05:24 16,4 15,6 5,0 WZW 8,0 1013,2 95 - -
05:29 16,4 15,6 8,0 WZW 8,0 1013,2 95 - -
05:34 16,4 15,6 6,0 WZW 8,0 1013,2 95 - -
05:39 16,4 15,6 6,0 WZW 6,0 1013,2 95 - -
05:44 16,4 15,6 6,0 WZW 8,0 1013,2 95 - -
05:49 16,6 15,8 6,0 WZW 8,0 1013,2 95 - -
05:54 16,6 16,0 8,0 WZW 8,0 1013,2 96 - -
05:59 16,7 15,9 8,0 WZW 8,0 1013,2 95 - -
06:04 16,7 15,9 13,0 WZW 16,0 1013,2 95 - -
06:09 16,7 15,9 8,0 WZW 16,0 1013,2 95 - -
06:14 16,7 15,9 10,0 WZW 16,0 1013,2 95 - -
06:19 16,6 15,8 10,0 Westen 16,0 1013,2 95 - -
06:24 16,6 15,8 10,0 WZW 10,0 1013,2 95 - -
06:29 16,6 15,8 8,0 WZW 10,0 1013,2 95 - -
06:34 16,6 15,8 6,0 WZW 11,0 1013,2 95 - -
06:39 16,6 15,8 6,0 Westen 6,0 1013,2 95 - 5
06:44 16,4 15,6 8,0 WZW 11,0 1013,6 95 - 11
06:49 16,4 15,6 10,0 WZW 10,0 1013,6 95 - 14
06:54 16,4 15,6 8,0 WZW 8,0 1013,6 95 - 21
06:59 16,6 16,0 10,0 WZW 10,0 1013,6 96 - 21
07:04 16,6 16,0 5,0 Westen 8,0 1013,6 96 - 23
07:09 16,6 16,0 5,0 WZW 8,0 1013,6 96 - 26
07:14 16,6 16,0 6,0 WZW 8,0 1013,6 96 - 28
07:19 16,6 16,0 5,0 WZW 6,0 1013,6 96 - 28
07:24 16,6 16,0 6,0 WZW 6,0 1013,6 96 - 28
07:29 16,7 16,1 6,0 WZW 8,0 1013,6 96 - 32
07:34 16,7 16,1 6,0 WZW 6,0 1013,6 96 - 40
07:39 16,7 16,1 5,0 WZW 8,0 1013,6 96 - 46
07:44 16,7 16,1 8,0 WZW 8,0 1013,6 96 - 49
07:49 16,8 16,2 6,0 WZW 8,0 1013,6 96 - 63
07:54 16,8 16,2 6,0 WZW 6,0 1013,6 96 - 63
07:59 16,8 16,2 8,0 WZW 10,0 1013,6 96 - 54
08:04 16,9 16,1 8,0 WZW 10,0 1013,6 95 - 51
08:09 16,9 16,1 11,0 WZW 11,0 1013,6 95 - 81
08:14 16,9 15,9 8,0 WZW 11,0 1013,6 94 - 77
08:19 17,0 16,0 6,0 ZW 6,0 1013,6 94 - 86
08:24 17,1 16,1 10,0 WZW 11,0 1013,6 94 - 98
08:29 17,3 16,1 6,0 WZW 11,0 1013,9 93 - 118
08:34 17,4 16,1 11,0 WZW 11,0 1013,9 92 - 118
08:39 17,6 16,0 5,0 Westen 11,0 1013,9 91 - 134
08:44 17,8 16,0 10,0 WZW 11,0 1013,9 90 - 193
08:49 18,1 16,1 10,0 WZW 13,0 1013,9 89 - 236
08:54 18,2 16,2 16,0 WZW 16,0 1013,9 88 - 158
08:59 18,2 15,8 11,0 WZW 15,0 1014,2 86 - 144
09:04 18,3 15,9 14,0 WZW 18,0 1014,2 86 - 253
09:09 18,5 16,1 11,0 ZW 18,0 1014,2 86 - 359
09:14 18,8 16,4 14,0 WZW 18,0 1014,2 86 - 392
09:19 19,1 16,3 13,0 ZW 18,0 1014,2 85 - 366
09:24 19,2 16,3 10,0 WZW 18,0 1014,2 84 - 366
09:29 19,3 16,1 11,0 WZW 13,0 1014,2 82 - 216
09:34 19,2 16,1 16,0 ZW 19,0 1014,2 82 - 186
09:39 19,2 15,9 14,0 ZW 19,0 1014,2 81 - 316
09:44 19,1 15,8 14,0 ZW 16,0 1014,6 81 - 225
09:49 18,9 15,8 11,0 WZW 15,0 1014,6 82 - 257
09:54 19,1 16,0 16,0 WZW 16,0 1014,6 82 - 267
09:59 19,2 16,0 8,0 Westen 11,0 1014,6 82 - 325
10:04 19,3 16,0 13,0 WZW 16,0 1014,6 81 - 445
10:09 19,5 15,9 14,0 WZW 16,0 1014,6 80 - 401
10:14 19,6 15,8 16,0 WZW 16,0 1014,6 79 - 392
10:19 19,7 15,7 14,0 WZW 16,0 1014,6 78 - 343
10:24 19,7 15,6 16,0 WZW 16,0 1014,6 77 - 330
10:29 19,8 15,7 11,0 WZW 13,0 1014,6 77 - 236
10:33 19,8 15,7 14,0 ZW 16,0 1014,6 77 - 220
Dagelijkse Samenvatting Vrijdag 19 augustus 2022
Tijd Temp. ( °C ) Dew pt. ( °C ) Wind ( km/h ) van Windvlaag ( km/h ) Luchtdruk ( hPa ) Humid.( % ) Rainrate ( cm ) Zonneschijn ( W/m2 )
Hoog19,8 16,4 16,0 WZW ( 538/720 ) 19,0 1014,6 96 - 445
Gemiddeld17,3 15,7 5,7 WZW #72/127 7,1 1013,4 90 - 165 #48/127
Laag16,1 15,0 -   0,0 1012,9 77 -  
Dagelijkse Tabular details for Vrijdag 19 augustus 2022
Tijd Temp. ( °C ) Dew pt. ( °C ) Wind ( km/h ) van Windvlaag ( km/h ) Luchtdruk ( hPa ) Humid.( % ) Rainrate ( cm ) Zonneschijn ( W/m2 )
00:04 18,2 15,5   Windstil 2,0 1012,9 84 - -
00:09 18,2 15,5   Windstil 2,0 1012,9 84 - -
00:14 18,2 15,5 3,0 NW 3,0 1012,9 84 - -
00:19 18,1 15,5 1,0 NW 3,0 1012,9 85 - -
00:24 18,1 15,5 1,0 NW 2,0 1012,9 85 - -
00:29 18,1 15,5 3,0 NW 3,0 1012,9 85 - -
00:34 17,9 15,5 3,0 NW 3,0 1012,9 86 - -
00:39 17,9 15,5 3,0 WNW 3,0 1012,9 86 - -
00:44 17,9 15,5 1,0 WNW 3,0 1012,9 86 - -
00:49 17,9 15,5   Windstil   1012,9 86 - -
00:54 17,9 15,5 3,0 WNW 3,0 1012,9 86 - -
00:59 17,9 15,5 3,0 WNW 3,0 1012,9 86 - -
01:04 17,9 15,7 1,0 WNW 3,0 1012,9 87 - -
01:09 17,8 15,6 3,0 WNW 3,0 1012,9 87 - -
01:14 17,8 15,6 3,0 WNW 3,0 1012,9 87 - -
01:19 17,8 15,6 3,0 WNW 3,0 1012,9 87 - -
01:24 17,8 15,6 1,0 Westen 3,0 1012,9 87 - -
01:29 17,7 15,5 1,0 Westen 2,0 1013,2 87 - -
01:34 17,7 15,6 3,0 Westen 3,0 1013,2 88 - -
01:39 17,6 15,6 1,0 Westen 2,0 1013,2 88 - -
01:44 17,6 15,6   Windstil 2,0 1013,2 88 - -
01:49 17,6 15,6   Windstil 2,0 1012,9 88 - -
01:54 17,5 15,6 1,0 Westen 3,0 1012,9 89 - -
01:59 17,4 15,6 1,0 Westen 3,0 1012,9 89 - -
02:04 17,4 15,6 3,0 Westen 3,0 1012,9 89 - -
02:09 17,3 15,5   Windstil 3,0 1012,9 89 - -
02:14 17,3 15,6   Windstil   1013,2 90 - -
02:19 17,3 15,6   Windstil   1013,2 90 - -
02:24 17,3 15,6   Windstil   1013,2 90 - -
02:29 17,2 15,5 2,0 Westen 2,0 1013,2 90 - -
02:34 17,2 15,7 3,0 Westen 3,0 1012,9 91 - -
02:39 17,2 15,7 3,0 WZW 3,0 1012,9 91 - -
02:44 17,2 15,7 3,0 WZW 5,0 1012,9 91 - -
02:49 17,2 15,7 1,0 WZW 2,0 1012,9 91 - -
02:54 17,1 15,6 5,0 WZW 5,0 1012,9 91 - -
02:59 17,0 15,5 1,0 WZW 3,0 1012,9 91 - -
03:04 17,0 15,5 3,0 WZW 3,0 1012,9 91 - -
03:09 16,9 15,4   Windstil 3,0 1012,9 91 - -
03:14 16,8 15,3   Windstil   1012,9 91 - -
03:19 16,7 15,2   Windstil   1012,9 91 - -
03:24 16,7 15,2   Windstil   1012,9 91 - -
03:29 16,6 15,3 2,0 WZW 2,0 1012,9 92 - -
03:34 16,6 15,3 3,0 WZW 3,0 1012,9 92 - -
03:39 16,4 15,1 3,0 WZW 3,0 1012,9 92 - -
03:44 16,4 15,1   Windstil 2,0 1012,9 92 - -
03:49 16,4 15,1 3,0 WZW 3,0 1012,9 92 - -
03:54 16,4 15,3 1,0 WZW 3,0 1012,9 93 - -
03:59 16,4 15,1 3,0 WZW 3,0 1012,9 92 - -
04:04 16,6 15,5   Windstil   1012,9 93 - -
04:09 16,4 15,3 3,0 WZW 3,0 1012,9 93 - -
04:14 16,4 15,1   Windstil   1013,2 92 - -
04:19 16,4 15,3 3,0 WZW 3,0 1013,2 93 - -
04:24 16,4 15,3   Windstil 2,0 1013,2 93 - -
04:29 16,3 15,2 3,0 WZW 3,0 1013,2 93 - -
04:34 16,3 15,2   Windstil   1012,9 93 - -
04:39 16,2 15,1   Windstil   1012,9 93 - -
04:44 16,1 15,0 1,0 WZW 2,0 1012,9 93 - -
04:49 16,1 15,0 3,0 WZW 3,0 1012,9 93 - -
04:54 16,1 15,0 5,0 WZW 5,0 1012,9 93 - -
04:59 16,1 15,1 5,0 Westen 5,0 1013,2 94 - -
05:04 16,1 15,1 5,0 WZW 5,0 1013,2 94 - -
05:09 16,1 15,1 6,0 WZW 6,0 1013,2 94 - -
05:14 16,2 15,4 6,0 WZW 8,0 1013,2 95 - -
05:19 16,3 15,5 8,0 Westen 8,0 1013,2 95 - -
05:24 16,4 15,6 5,0 WZW 8,0 1013,2 95 - -
05:29 16,4 15,6 8,0 WZW 8,0 1013,2 95 - -
05:34 16,4 15,6 6,0 WZW 8,0 1013,2 95 - -
05:39 16,4 15,6 6,0 WZW 6,0 1013,2 95 - -
05:44 16,4 15,6 6,0 WZW 8,0 1013,2 95 - -
05:49 16,6 15,8 6,0 WZW 8,0 1013,2 95 - -
05:54 16,6 16,0 8,0 WZW 8,0 1013,2 96 - -
05:59 16,7 15,9 8,0 WZW 8,0 1013,2 95 - -
06:04 16,7 15,9 13,0 WZW 16,0 1013,2 95 - -
06:09 16,7 15,9 8,0 WZW 16,0 1013,2 95 - -
06:14 16,7 15,9 10,0 WZW 16,0 1013,2 95 - -
06:19 16,6 15,8 10,0 Westen 16,0 1013,2 95 - -
06:24 16,6 15,8 10,0 WZW 10,0 1013,2 95 - -
06:29 16,6 15,8 8,0 WZW 10,0 1013,2 95 - -
06:34 16,6 15,8 6,0 WZW 11,0 1013,2 95 - -
06:39 16,6 15,8 6,0 Westen 6,0 1013,2 95 - 5
06:44 16,4 15,6 8,0 WZW 11,0 1013,6 95 - 11
06:49 16,4 15,6 10,0 WZW 10,0 1013,6 95 - 14
06:54 16,4 15,6 8,0 WZW 8,0 1013,6 95 - 21
06:59 16,6 16,0 10,0 WZW 10,0 1013,6 96 - 21
07:04 16,6 16,0 5,0 Westen 8,0 1013,6 96 - 23
07:09 16,6 16,0 5,0 WZW 8,0 1013,6 96 - 26
07:14 16,6 16,0 6,0 WZW 8,0 1013,6 96 - 28
07:19 16,6 16,0 5,0 WZW 6,0 1013,6 96 - 28
07:24 16,6 16,0 6,0 WZW 6,0 1013,6 96 - 28
07:29 16,7 16,1 6,0 WZW 8,0 1013,6 96 - 32
07:34 16,7 16,1 6,0 WZW 6,0 1013,6 96 - 40
07:39 16,7 16,1 5,0 WZW 8,0 1013,6 96 - 46
07:44 16,7 16,1 8,0 WZW 8,0 1013,6 96 - 49
07:49 16,8 16,2 6,0 WZW 8,0 1013,6 96 - 63
07:54 16,8 16,2 6,0 WZW 6,0 1013,6 96 - 63
07:59 16,8 16,2 8,0 WZW 10,0 1013,6 96 - 54
08:04 16,9 16,1 8,0 WZW 10,0 1013,6 95 - 51
08:09 16,9 16,1 11,0 WZW 11,0 1013,6 95 - 81
08:14 16,9 15,9 8,0 WZW 11,0 1013,6 94 - 77
08:19 17,0 16,0 6,0 ZW 6,0 1013,6 94 - 86
08:24 17,1 16,1 10,0 WZW 11,0 1013,6 94 - 98
08:29 17,3 16,1 6,0 WZW 11,0 1013,9 93 - 118
08:34 17,4 16,1 11,0 WZW 11,0 1013,9 92 - 118
08:39 17,6 16,0 5,0 Westen 11,0 1013,9 91 - 134
08:44 17,8 16,0 10,0 WZW 11,0 1013,9 90 - 193
08:49 18,1 16,1 10,0 WZW 13,0 1013,9 89 - 236
08:54 18,2 16,2 16,0 WZW 16,0 1013,9 88 - 158
08:59 18,2 15,8 11,0 WZW 15,0 1014,2 86 - 144
09:04 18,3 15,9 14,0 WZW 18,0 1014,2 86 - 253
09:09 18,5 16,1 11,0 ZW 18,0 1014,2 86 - 359
09:14 18,8 16,4 14,0 WZW 18,0 1014,2 86 - 392
09:19 19,1 16,3 13,0 ZW 18,0 1014,2 85 - 366
09:24 19,2 16,3 10,0 WZW 18,0 1014,2 84 - 366
09:29 19,3 16,1 11,0 WZW 13,0 1014,2 82 - 216
09:34 19,2 16,1 16,0 ZW 19,0 1014,2 82 - 186
09:39 19,2 15,9 14,0 ZW 19,0 1014,2 81 - 316
09:44 19,1 15,8 14,0 ZW 16,0 1014,6 81 - 225
09:49 18,9 15,8 11,0 WZW 15,0 1014,6 82 - 257
09:54 19,1 16,0 16,0 WZW 16,0 1014,6 82 - 267
09:59 19,2 16,0 8,0 Westen 11,0 1014,6 82 - 325
10:04 19,3 16,0 13,0 WZW 16,0 1014,6 81 - 445
10:09 19,5 15,9 14,0 WZW 16,0 1014,6 80 - 401
10:14 19,6 15,8 16,0 WZW 16,0 1014,6 79 - 392
10:19 19,7 15,7 14,0 WZW 16,0 1014,6 78 - 343
10:24 19,7 15,6 16,0 WZW 16,0 1014,6 77 - 330
10:29 19,8 15,7 11,0 WZW 13,0 1014,6 77 - 236
10:33 19,8 15,7 14,0 ZW 16,0 1014,6 77 - 220

Download your copy of this data-set  here

U vindt ons ook hier:

Het Weer Aktueel

WOW Nederland KNMI

Vereniging voor Weerkunde en Klimatologie

UK Met Office Weather Observation Website (WOW)

WeatherCloud

Weather Underground

Awekas

MeteoMap.Cloud

HAMweather, WeatherForYou, PWS Weather

Citizen Weather Observer Program (CWOP)

Apparatuur in gebruik:

Hardwareleverancier
Weerhuisje

Weerstation
Vantage Pro2+ UV

Weercomputer's
alix3d2 & wl330n

Weerprogramma's
Smartbedded

Satelliet NOAA's
WRX137 & KX137

Satelliet Eumetsat
Ayecka SR1 & Triax

Bliksemdetectie
Boltek StormTracker

Webleverancier
F-Service

Weerhuisje

Vantage Pro2+ UV

alix3d2 & wl330n

Smartbedded

WRX137 & KX137

Ayecka SR1 & Triax

Boltek StormTracker

F-Service